Regional Weather Roundup
Issued by NWS State College, PA

Home | Current Version | Previous Version | Graphics & Text | Print | Product List | Glossary Off
Versions: 1 2 3 4 5 6 7 8 9 10 11 12 13 14 15 16 17 18 19 20 21 22 23 24 25 26 27 28 29 30 31 32 33 34 35 36 37 38 39 40 41 42 43 44 45 46 47 48 49 50

000
ASUS41 KCTP 230810
RWRCTP

REGIONAL WEATHER ROUNDUP
NATIONAL WEATHER SERVICE STATE COLLEGE PA
400 AM EDT SAT JUL 23 2016

Note: "fair" indicates few or no clouds below 12,000 feet with no
significant weather and/or obstructions to visibility.

* = STATION THAT DOES NOT REPORT PRECIPITATION /E.G. RAIN...SNOW...ETC/
    THUNDER OR FOG.

PAZ002>004-007>009-013>016-020>023-029>032-230900-
WESTERN PENNSYLVANIA

CITY           SKY/WX    TMP DP  RH WIND       PRES   REMARKS
ERIE           CLEAR     79  71  76 W12G18    29.94S
MEADVILLE      MOCLDY    71  67  87 SW5       29.99S
FRANKLIN*      CLOUDY    72  66  83 SW9       30.02S
NEW CASTLE     FAIR      73  70  90 SW3       30.00S
BEAVER COUNTY  NOT AVBL
BUTLER*        CLEAR     70  66  88 CALM      30.03S
PITTSBURGH INT MOCLDY    73  66  78 W5        30.01S
PITTSBURGH     CLEAR     74  65  73 SW7       30.01R
INDIANA*       CLOUDY    73  72  94 SW6       30.04S
LATROBE        CLEAR     73  73 100 S6        30.03S
WASHINGTON CO* CLEAR     68  64  88 CALM      30.03F
$$

PAZ004>006-010>012-017>019-024>028-033>037-041-042-045-046-049>053-230900-
CENTRAL PENNSYLVANIA

CITY           SKY/WX    TMP DP  RH WIND       PRES   REMARKS
BRADFORD       PTCLDY    70  65  84 W3        30.01R
DUBOIS         MOCLDY    70  67  90 SW8       30.00R
CLEARFIELD     PTCLDY    73  67  81 S7        29.99R
JOHNSTOWN      CLEAR     72  64  76 W13       30.06R
ALTOONA        CLEAR     70  65  84 S5        30.00S
STATE COLLEGE  CLEAR     76  69  78 SW5       29.96S
WILLIAMSPORT   PTCLDY    72  64  76 CALM      29.89R
SELINSGROVE    CLEAR     68  68 100 CALM      29.91S
FT INDIANTOWN  CLEAR     71  68  93 NE1       29.91R
CAPITAL CITY   CLEAR     77  68  73 W7        29.91R
HARRISBURG     CLEAR     76  71  85 NE3       29.90S
YORK           CLEAR     72  67  84 CALM      29.92S
$$

PAZ038>040-043-044-047-048-054-055-060>062-067>071-230900-
EASTERN PENNSYLVANIA

CITY           SKY/WX    TMP DP  RH WIND       PRES   REMARKS
SCRANTON       PTCLDY    72  63  73 CALM      29.90S
MOUNT POCONO   CLEAR     66  32  28 NW6       29.95S
ALLENTOWN      CLEAR     73  66  78 W5        29.89R
QUAKERTOWN*    SUNNY     79  68  69 CALM      29.90S
READING        CLEAR     75  67  76 CALM      29.89R
LANCASTER      CLEAR     71  67  87 W5        29.91S
COATESVILLE    SUNNY     75  68  78 W5        29.93S
POTTSTOWN      CLEAR     73  67  81 CALM      29.90S
BLUE BELL      CLEAR     70  68  94 W3        29.88R
DOYLESTOWN     CLEAR     72  67  84 S3        29.87S
WILLOW GROVE   NOT AVBL
NORTH PHILA    CLEAR     77  68  73 W5        29.88S
PHILADELPHIA   CLEAR     80  70  71 W9        29.87S
$$




USA.gov is the U.S. government's official web portal to all federal, state and local government web resources and services.